Location: Czekanka
(50.4925°N, 19.2643°E)
Time: 21:09:08
(UTC+00:00)

Cosmos 2123 Rocket - Visible Passes

Search period start: 19 September 2024 00:00
Search period end: 29 September 2024 00:00
Orbit: 961 x 991 km, 82.9° (Epoch: 18 September)

Date Brightness Start Highest point End Pass type
(mag) Time Alt. Az. Time Alt. Az. Time Alt. Az.
19 Sep 6.8 01:41:15 10° ESE 01:44:34 15° ENE 01:47:53 10° NE visible
19 Sep 4.3 03:22:36 10° S 03:28:54 77° E 03:35:13 10° NNE visible
20 Sep 6.2 02:04:40 10° SE 02:09:37 25° E 02:14:35 10° NNE visible
20 Sep 4.1 03:48:14 10° SSW 03:54:30 66° WNW 04:00:47 10° N visible
21 Sep 5.3 02:29:02 10° SSE 02:34:51 41° E 02:40:41 10° NNE visible
22 Sep 6.8 01:13:25 10° E 01:16:02 13° ENE 01:18:40 10° NE visible
22 Sep 4.4 02:54:00 10° S 03:00:14 68° E 03:06:30 10° NNE visible
23 Sep 6.2 01:36:24 10° SE 01:41:03 22° E 01:45:42 10° NNE visible
23 Sep 4.0 03:19:29 10° SSW 03:25:48 75° WNW 03:32:06 10° N visible
24 Sep 5.4 02:00:35 10° SSE 02:06:14 36° E 02:11:53 10° NNE visible
24 Sep 4.3 03:45:30 10° SW 03:51:31 46° WNW 03:57:33 10° N visible
25 Sep 6.8 00:45:55 10° E 00:47:31 11° ENE 00:49:07 10° ENE visible
25 Sep 4.5 02:25:25 10° S 02:31:35 60° E 02:37:45 10° NNE visible
26 Sep 6.3 01:08:13 10° ESE 01:12:29 19° E 01:16:44 10° NE visible
26 Sep 4.0 02:50:48 10° S 02:57:05 84° W 03:03:24 10° N visible
27 Sep 5.6 01:32:11 10° SE 01:37:37 32° E 01:43:04 10° NNE visible
27 Sep 4.2 03:16:40 10° SSW 03:22:47 52° WNW 03:28:53 10° N visible
28 Sep 4.7 01:56:52 10° SSE 02:02:56 53° E 02:09:00 10° NNE visible
28 Sep 4.7 03:43:05 10° SW 03:48:38 32° WNW 03:54:12 10° N visible
